The Dalles, WA

10:13 PM PST on December 11, 2019 (GMT -0800)
Columbia Gorge Regional-The Dalles

Weather History for KDLS - October, 2019

Change the Weather History Date:

Friday, October 18, 2019

  Actual Average Record
Temperature  
Mean Temperature 52 °F -  
Max Temperature 61 °F 66 °F 77 °F (1952)
Min Temperature 45 °F 40 °F 28 °F (1948)
Degree Days  
Heating Degree Days 12    
Growing Degree Days 2 (Base 50)    
Moisture  
Dew Point 43 °F    
Average Humidity 69    
Maximum Humidity 90    
Minimum Humidity 51    
Precipitation  
Precipitation 0.02 in - - ()
Sea Level Pressure  
Sea Level Pressure 29.91 in    
Wind  
Wind Speed 7 mph (NW)    
Max Wind Speed 13 mph    
Max Gust Speed -    
Visibility 10 miles    
Events Rain    
Averages and records for this station are not official NWS values.
T = Trace of Precipitation, MM = Missing Value Source: NWS Daily Summary

Daily Weather History Graph

Daily Weather History Graph

Search for Another Location

Airport or City:

Astronomy

Oct. 18, 2019 Rise Set
Actual Time 7:24 AM PDT 6:13 PM PDT
Civil Twilight 6:54 AM PDT 6:43 PM PDT
Nautical Twilight 6:20 AM PDT 7:18 PM PDT
Astronomical Twilight 5:46 AM PDT 7:52 PM PDT
Moon 9:22 PM PDT (10/18) 12:14 PM PDT (10/18)
Length of Visible Light 11h 49m
Length of Day
10h 49m
Waning Gibbous, 78% of the Moon is Illuminated
Oct 18
Waning Gibbous
Oct 21
Last Quarter
Oct 27
New
Nov 4
First Quarter
Nov 12
Full

Hourly Weather History & Observations

Time (PDT) Temp. Windchill Dew Point Humidity Pressure Visibility Wind Dir Wind Speed Gust Speed Precip Events Conditions
12:53 AM 52.0 °F - 41.0 °F 66% 29.83 in 10.0 mi NW 8.1 mph - N/A   Partly Cloudy
1:53 AM 52.0 °F - 41.0 °F 66% 29.86 in 10.0 mi North 5.8 mph - N/A   Mostly Cloudy
2:53 AM 52.0 °F - 39.9 °F 63% 29.89 in 10.0 mi North - - N/A   Overcast
3:53 AM 51.1 °F - 41.0 °F 68% 29.89 in 10.0 mi NW 8.1 mph - N/A   Overcast
4:53 AM 48.9 °F - 42.1 °F 77% 29.90 in 10.0 mi NW 8.1 mph - N/A   Mostly Cloudy
5:53 AM 48.9 °F - 41.0 °F 74% 29.92 in 10.0 mi Variable 3.5 mph - N/A   Partly Cloudy
6:53 AM 46.0 °F 43.9 °F 41.0 °F 83% 29.93 in 10.0 mi East 4.6 mph - N/A   Mostly Cloudy
7:53 AM 45.0 °F 41.2 °F 39.9 °F 82% 29.94 in 10.0 mi South 6.9 mph - N/A   Clear
8:53 AM 53.1 °F - 39.9 °F 61% 29.96 in 10.0 mi ENE 3.5 mph - N/A   Mostly Cloudy
9:53 AM 57.0 °F - 39.9 °F 53% 29.97 in 10.0 mi Variable 4.6 mph - N/A   Scattered Clouds
10:53 AM 57.9 °F - 41.0 °F 53% 29.97 in 10.0 mi NW 8.1 mph - N/A   Scattered Clouds
11:53 AM 60.1 °F - 42.1 °F 51% 29.96 in 10.0 mi NW 5.8 mph - N/A   Mostly Cloudy
12:53 PM 57.9 °F - 43.0 °F 58% 29.95 in 10.0 mi NW 12.7 mph - 0.00 in   Overcast
1:53 PM 57.9 °F - 43.0 °F 58% 29.94 in 10.0 mi NNW 9.2 mph - N/A   Overcast
2:53 PM 59.0 °F - 42.1 °F 53% 29.93 in 10.0 mi NNE 5.8 mph - N/A   Overcast
3:53 PM 57.9 °F - 42.1 °F 56% 29.92 in 10.0 mi Variable 4.6 mph - N/A   Overcast
4:53 PM 55.0 °F - 44.1 °F 67% 29.93 in 10.0 mi NNW 11.5 mph - N/A   Overcast
5:53 PM 54.0 °F - 44.1 °F 69% 29.92 in 9.0 mi NNW 4.6 mph - 0.01 in Rain Light Rain
6:53 PM 53.1 °F - 44.1 °F 71% 29.92 in 10.0 mi West 8.1 mph - 0.00 in   Overcast
7:53 PM 52.0 °F - 46.9 °F 83% 29.91 in 10.0 mi Calm Calm - N/A   Overcast
8:53 PM 50.0 °F - 46.0 °F 86% 29.89 in 10.0 mi SSW 4.6 mph - 0.00 in   Overcast
9:53 PM 48.9 °F - 46.0 °F 90% 29.86 in 10.0 mi NNW 4.6 mph - N/A   Overcast
10:53 PM 48.9 °F - 45.0 °F 86% 29.86 in 10.0 mi West 4.6 mph - N/A   Overcast
11:53 PM 48.0 °F - 45.0 °F 89% 29.82 in 10.0 mi NW 6.9 mph - 0.01 in   Overcast